This is the latest recevied weather packets stored in our database for station/object K8RLH. If no packets are shown the sender has not sent any weather packets the latest 10 day(s).
| Time | Temp. | Humidity | Pressure | Rain* | Wind** | Luminosity | Snow |
|---|---|---|---|---|---|---|---|
| 1777640385 | 13.89° C | 58% | 1017.1 hPa | 0 mm | - | 67 W/m² | - |
| 1777640082 | 13.89° C | 59% | 1017 hPa | 0 mm | - | 65 W/m² | - |
| 1777639778 | 13.89° C | 56% | 1016.9 hPa | 0 mm | - | 52 W/m² | - |
| 1777639477 | 13.89° C | 58% | 1016.7 hPa | 0 mm | - | 50 W/m² | - |
| 1777639173 | 13.89° C | 56% | 1016.5 hPa | 0 mm | - | 52 W/m² | - |
| 1777638869 | 13.89° C | 56% | 1016.5 hPa | 0 mm | - | 51 W/m² | - |
| 1777638565 | 13.89° C | 56% | 1016.4 hPa | 0 mm | - | 52 W/m² | - |
| 1777638261 | 13.89° C | 57% | 1016.3 hPa | 0 mm | - | 56 W/m² | - |
| 1777637958 | 13.89° C | 56% | 1016 hPa | 0 mm | - | 58 W/m² | - |
| 1777637654 | 13.89° C | 56% | 1016.1 hPa | 0 mm | - | 57 W/m² | - |
| 1777637351 | 13.89° C | 55% | 1016.1 hPa | 0 mm | - | 48 W/m² | - |
| 1777637048 | 13.89° C | 55% | 1016.4 hPa | 0 mm | - | 44 W/m² | - |
| 1777636744 | 13.89° C | 56% | 1016.1 hPa | 0 mm | - | 43 W/m² | - |
| 1777636440 | 13.89° C | 55% | 1016.1 hPa | 0 mm | - | 31 W/m² | - |
| 1777636136 | 13.89° C | 54% | 1016.3 hPa | 0 mm | - | 30 W/m² | - |
| 1777635831 | 13.89° C | 54% | 1016.1 hPa | 0 mm | - | 30 W/m² | - |
| 1777635528 | 13.89° C | 55% | 1016.3 hPa | 0 mm | - | 27 W/m² | - |
| 1777635224 | 13.89° C | 54% | 1016 hPa | 0 mm | - | 31 W/m² | - |
| 1777634921 | 13.89° C | 54% | 1016 hPa | 0 mm | - | 28 W/m² | - |
| 1777634618 | 13.89° C | 54% | 1015.8 hPa | 0 mm | - | 16 W/m² | - |
| 1777634316 | 13.89° C | 54% | 1016 hPa | 0 mm | - | 17 W/m² | - |
| 1777634012 | 13.89° C | 54% | 1015.8 hPa | 0 mm | - | 17 W/m² | - |
| 1777633708 | 13.89° C | 54% | 1015.9 hPa | 0 mm | - | 15 W/m² | - |
| 1777633407 | 14.44° C | 53% | 1015.6 hPa | 0 mm | - | 10 W/m² | - |
| 1777633104 | 14.44° C | 52% | 1015.4 hPa | 0 mm | - | 6 W/m² | - |
* Rain latest hour (hover to see other rain measurements)
** Current wind speed in m/s (hover to see current wind gust speed)